Погода в Марьевке

Украина / Днепропетровская область     48°56′38″N   35°11′29″E
темп.,
°C
ветер,
м/с
пор.,
м/с
влажн.,
%
обл.,
%
осадки,
мм/ч
давл.,
гПа
погр.,
м
16 мая, вс
вс1600:00+17ююз236354 0.0 101241
03:00+14ю118096 0.0 101310
06:00+14в2277100 0.0 101221
09:00+21в2359100 0.0 1013390
12:00+24всв3446100 0.0 10121601
15:00+25всв454228 0.0 10101748
18:00+24св475834 0.0 1008535
21:00+18св51486100 1.0 1007296
17 мая, пн
пн1700:00+18в41093100 1.6 1005208
03:00+16всв3690100 1.6 1004118
06:00+16в61283100 0.0 1002243
09:00+20юв69636 0.1 1003631
12:00+24юв7963100 0.4 10031226
15:00+24ю8967100 0.5 10031306
18:00+24ю576713 0.1 10041344
21:00+18ю41085100 0.1 1005208
18 мая, вт
вт1800:00+16ююв4894100 0.0 1006163
03:00+14ю3795100 0.0 1006164
06:00+14ю3792100 0.0 1007221
09:00+17ююз4675100 0.0 1007467
12:00+21ю456137 0.1 10061308
15:00+21ю585637 1.4 10051685
18:00+19ююз5874100 1.2 1005761
21:00+14ю41092100 2.3 1006422
19 мая, ср
ср1900:00+13ююв4109797 1.3 1005327
03:00+11ююв49953 1.3 1005287
06:00+11ююв499672 0.0 1005350
09:00+16ююв687410 0.3 1006890
12:00+16ююв6972100 1.7 10051124
15:00+14ююв6108835 2.8 1005746
18:00+15ююз7108398 1.1 1005775
21:00+13ююз6109025 1.4 1006271
20 мая, чт
чт2000:00+11зюз61292100 0.0 1008595
03:00+12зюз61290100 0.2 1009717
06:00+11юз6129228 0.0 1011507
09:00+16зюз710710 0.0 1012889
12:00+20зюз79530 0.0 10141416
15:00+22з574867 0.0 10142245
18:00+18ю357098 0.0 1014115
21:00+16ю4571100 0.0 101569